Time,TemperatureF,DewpointF,PressureIn,WindDirection,WindDirectionDegrees,WindSpeedMPH,WindSpeedGustMPH,Humidity,HourlyPrecipIn,Conditions,Clouds,dailyrainin,SoftwareType,DateUTC
2013-01-19 00:04:00,58.0,55.0,30.21,ENE,76,5.0,8.0,88,-99.99,,,-99.99,,2013-01-19 05:04:00,
2013-01-19 00:13:00,58.0,55.0,30.21,ENE,76,5.0,8.0,88,-99.99,,,-99.99,,2013-01-19 05:13:00,
2013-01-19 00:33:00,59.0,55.0,30.20,East,81,4.0,7.0,87,-99.99,,,-99.99,,2013-01-19 05:33:00,
2013-01-19 00:43:00,59.0,55.0,30.20,East,87,4.0,8.0,87,-99.99,,,-99.99,,2013-01-19 05:43:00,
2013-01-19 00:53:00,59.0,55.0,30.20,East,87,4.0,8.0,87,-99.99,,,-99.99,,2013-01-19 05:53:00,
2013-01-19 01:03:00,59.0,56.0,30.19,East,80,5.0,10.0,86,-99.99,,,-99.99,,2013-01-19 06:03:00,
2013-01-19 01:12:00,59.0,56.0,30.19,East,80,5.0,10.0,86,-99.99,,,-99.99,,2013-01-19 06:12:00,
2013-01-19 01:23:00,59.0,56.0,30.19,NE,47,4.0,8.0,88,-99.99,,,-99.99,,2013-01-19 06:23:00,
2013-01-19 01:33:00,59.0,56.0,30.19,NE,47,4.0,8.0,88,-99.99,,,-99.99,,2013-01-19 06:33:00,
2013-01-19 01:43:00,59.0,56.0,30.18,East,82,4.0,7.0,88,-99.99,,,-99.99,,2013-01-19 06:43:00,
2013-01-19 01:53:00,59.0,56.0,30.18,East,82,4.0,7.0,88,-99.99,,,-99.99,,2013-01-19 06:53:00,
2013-01-19 02:02:00,59.0,56.0,30.18,NE,42,3.0,7.0,89,-99.99,,,-99.99,,2013-01-19 07:02:00,
2013-01-19 02:12:00,59.0,56.0,30.18,NE,42,3.0,7.0,89,-99.99,,,-99.99,,2013-01-19 07:12:00,
2013-01-19 02:23:00,59.0,56.0,30.18,ENE,61,2.0,4.0,90,-99.99,,,-99.99,,2013-01-19 07:23:00,
2013-01-19 02:33:00,59.0,56.0,30.18,ENE,61,2.0,4.0,90,-99.99,,,-99.99,,2013-01-19 07:33:00,
2013-01-19 02:43:00,58.0,56.0,30.17,ENE,63,2.0,3.0,91,-99.99,,,-99.99,,2013-01-19 07:43:00,
2013-01-19 02:53:00,58.0,56.0,30.17,ENE,63,2.0,3.0,91,-99.99,,,-99.99,,2013-01-19 07:53:00,
2013-01-19 03:02:00,58.0,55.0,30.17,East,79,1.0,3.0,91,-99.99,,,-99.99,,2013-01-19 08:02:00,
2013-01-19 03:12:00,58.0,55.0,30.17,East,79,1.0,3.0,91,-99.99,,,-99.99,,2013-01-19 08:12:00,
2013-01-19 03:22:00,57.0,55.0,30.17,WSW,248,1.0,2.0,93,-99.99,,,-99.99,,2013-01-19 08:22:00,
2013-01-19 03:33:00,57.0,55.0,30.17,WSW,248,1.0,2.0,93,-99.99,,,-99.99,,2013-01-19 08:33:00,
2013-01-19 03:43:00,57.0,55.0,30.16,West,273,1.0,1.0,94,-99.99,,,-99.99,,2013-01-19 08:43:00,
2013-01-19 03:53:00,57.0,55.0,30.16,West,273,1.0,1.0,94,-99.99,,,-99.99,,2013-01-19 08:53:00,
2013-01-19 04:02:00,57.0,55.0,30.16,SSW,208,1.0,2.0,94,-99.99,,,-99.99,,2013-01-19 09:02:00,
2013-01-19 04:12:00,57.0,55.0,30.16,SSW,208,1.0,2.0,94,-99.99,,,-99.99,,2013-01-19 09:12:00,
2013-01-19 04:23:00,57.0,55.0,30.17,SW,218,1.0,2.0,94,-99.99,,,-99.99,,2013-01-19 09:23:00,
2013-01-19 04:33:00,57.0,55.0,30.17,SW,218,1.0,2.0,94,-99.99,,,-99.99,,2013-01-19 09:33:00,
2013-01-19 04:43:00,57.0,56.0,30.17,WSW,256,1.0,2.0,95,-99.99,,,-99.99,,2013-01-19 09:43:00,
2013-01-19 04:53:00,57.0,56.0,30.17,WSW,256,1.0,2.0,95,-99.99,,,-99.99,,2013-01-19 09:53:00,
2013-01-19 05:02:00,57.0,56.0,30.16,WNW,285,1.0,2.0,95,-99.99,,,-99.99,,2013-01-19 10:02:00,
2013-01-19 05:12:00,57.0,56.0,30.16,WNW,285,1.0,2.0,95,-99.99,,,-99.99,,2013-01-19 10:12:00,
2013-01-19 05:23:00,58.0,57.0,30.16,West,278,1.0,3.0,94,-99.99,,,-99.99,,2013-01-19 10:23:00,
2013-01-19 05:33:00,58.0,57.0,30.16,West,278,1.0,3.0,94,-99.99,,,-99.99,,2013-01-19 10:33:00,
2013-01-19 05:43:00,58.0,57.0,30.17,West,263,2.0,3.0,94,-99.99,,,-99.99,,2013-01-19 10:43:00,
2013-01-19 05:53:00,58.0,57.0,30.17,West,263,2.0,3.0,94,-99.99,,,-99.99,,2013-01-19 10:53:00,
2013-01-19 06:03:00,59.0,57.0,30.17,WSW,244,2.0,3.0,93,-99.99,,,-99.99,,2013-01-19 11:03:00,
2013-01-19 06:12:00,59.0,57.0,30.17,WSW,244,2.0,3.0,93,-99.99,,,-99.99,,2013-01-19 11:12:00,
2013-01-19 06:15:00,59.0,57.0,30.19,SSW,198,1.0,1.0,93,-99.99,,,-99.99,,2013-01-19 11:15:00,
2013-01-19 07:48:00,59.0,58.0,30.19,West,273,1.0,2.0,94,-99.99,,,-99.99,,2013-01-19 12:48:00,
2013-01-19 07:53:00,59.0,58.0,30.19,West,273,1.0,2.0,94,-99.99,,,-99.99,,2013-01-19 12:53:00,
2013-01-19 08:03:00,59.0,58.0,30.20,SSW,195,2.0,3.0,95,-99.99,,,-99.99,,2013-01-19 13:03:00,
2013-01-19 08:13:00,59.0,58.0,30.20,SSW,195,2.0,3.0,95,-99.99,,,-99.99,,2013-01-19 13:13:00,
2013-01-19 08:23:00,60.0,58.0,30.20,NW,314,3.0,5.0,96,-99.99,,,-99.99,,2013-01-19 13:23:00,
2013-01-19 08:34:00,60.0,58.0,30.20,NW,314,3.0,5.0,96,-99.99,,,-99.99,,2013-01-19 13:34:00,
2013-01-19 08:43:00,60.0,59.0,30.20,SSW,200,3.0,6.0,96,-99.99,,,-99.99,,2013-01-19 13:43:00,
2013-01-19 08:54:00,60.0,59.0,30.20,SSW,200,3.0,6.0,96,-99.99,,,-99.99,,2013-01-19 13:54:00,
2013-01-19 09:03:00,60.0,59.0,30.20,NE,56,5.0,8.0,95,-99.99,,,-99.99,,2013-01-19 14:03:00,
2013-01-19 09:13:00,60.0,59.0,30.20,NE,56,5.0,8.0,95,-99.99,,,-99.99,,2013-01-19 14:13:00,
2013-01-19 09:23:00,62.0,60.0,30.21,NE,55,5.0,9.0,92,-99.99,,,-99.99,,2013-01-19 14:23:00,
2013-01-19 09:34:00,62.0,60.0,30.21,NE,55,5.0,9.0,92,-99.99,,,-99.99,,2013-01-19 14:34:00,
2013-01-19 09:43:00,63.0,60.0,30.21,ENE,64,6.0,13.0,89,-99.99,,,-99.99,,2013-01-19 14:43:00,
2013-01-19 09:54:00,63.0,60.0,30.21,ENE,64,6.0,13.0,89,-99.99,,,-99.99,,2013-01-19 14:54:00,
2013-01-19 10:03:00,64.0,60.0,30.22,NE,46,7.0,12.0,87,-99.99,,,-99.99,,2013-01-19 15:03:00,
2013-01-19 10:13:00,64.0,60.0,30.22,NE,46,7.0,12.0,87,-99.99,,,-99.99,,2013-01-19 15:13:00,
2013-01-19 10:23:00,66.0,61.0,30.22,ENE,76,6.0,11.0,82,-99.99,,,-99.99,,2013-01-19 15:23:00,
2013-01-19 10:33:00,66.0,61.0,30.22,ENE,76,6.0,11.0,82,-99.99,,,-99.99,,2013-01-19 15:33:00,
2013-01-19 10:43:00,68.0,61.0,30.23,ESE,102,5.0,11.0,80,-99.99,,,-99.99,,2013-01-19 15:43:00,
2013-01-19 10:53:00,68.0,61.0,30.23,ESE,102,5.0,11.0,80,-99.99,,,-99.99,,2013-01-19 15:53:00,
2013-01-19 11:03:00,69.0,62.0,30.22,NE,55,6.0,10.0,76,-99.99,,,-99.99,,2013-01-19 16:03:00,
2013-01-19 11:13:00,69.0,62.0,30.22,NE,55,6.0,10.0,76,-99.99,,,-99.99,,2013-01-19 16:13:00,
2013-01-19 11:23:00,71.0,62.0,30.22,ENE,75,6.0,11.0,71,-99.99,,,-99.99,,2013-01-19 16:23:00,
2013-01-19 11:33:00,71.0,62.0,30.22,ENE,75,6.0,11.0,71,-99.99,,,-99.99,,2013-01-19 16:33:00,
2013-01-19 11:43:00,72.0,62.0,30.22,ENE,68,5.0,37.0,69,-99.99,,,-99.99,,2013-01-19 16:43:00,
2013-01-19 11:54:00,72.0,62.0,30.22,ENE,68,5.0,37.0,69,-99.99,,,-99.99,,2013-01-19 16:54:00,
2013-01-19 12:03:00,73.0,62.0,30.21,ENE,73,4.0,9.0,67,-99.99,,,-99.99,,2013-01-19 17:03:00,
2013-01-19 12:29:00,73.0,62.0,30.20,East,98,5.0,10.0,68,-99.99,,,-99.99,,2013-01-19 17:29:00,
2013-01-19 12:37:00,73.0,62.0,30.20,East,98,5.0,10.0,68,-99.99,,,-99.99,,2013-01-19 17:37:00,
2013-01-19 12:49:00,73.0,62.0,30.19,ENE,77,4.0,9.0,67,-99.99,,,-99.99,,2013-01-19 17:49:00,
2013-01-19 12:55:00,73.0,62.0,30.19,ENE,77,4.0,9.0,67,-99.99,,,-99.99,,2013-01-19 17:55:00,
2013-01-19 13:00:00,73.0,62.0,30.15,ENE,61,6.0,11.0,68,-99.99,,,-99.99,,2013-01-19 18:00:00,
2013-01-19 13:13:00,74.0,61.0,30.18,ENE,69,6.0,14.0,63,-99.99,,,-99.99,,2013-01-19 18:13:00,
2013-01-19 13:15:00,74.0,63.0,30.14,ENE,61,5.0,10.0,67,-99.99,,,-99.99,,2013-01-19 18:15:00,
2013-01-19 13:29:00,74.0,62.0,30.16,ENE,62,5.0,11.0,66,-99.99,,,-99.99,,2013-01-19 18:29:00,
2013-01-19 13:37:00,74.0,62.0,30.16,ENE,62,5.0,11.0,66,-99.99,,,-99.99,,2013-01-19 18:37:00,
2013-01-19 13:46:00,73.0,62.0,30.15,ENE,61,6.0,11.0,68,-99.99,,,-99.99,,2013-01-19 18:46:00,
2013-01-19 14:10:00,74.0,63.0,30.14,ENE,61,5.0,10.0,67,-99.99,,,-99.99,,2013-01-19 19:10:00,
2013-01-19 14:15:00,74.0,63.0,30.11,ENE,59,5.0,10.0,67,-99.99,,,-99.99,,2013-01-19 19:15:00,
2013-01-19 14:32:00,73.0,63.0,30.13,ENE,65,5.0,10.0,68,-99.99,,,-99.99,,2013-01-19 19:32:00,
2013-01-19 14:40:00,73.0,63.0,30.13,ENE,65,5.0,10.0,68,-99.99,,,-99.99,,2013-01-19 19:40:00,
2013-01-19 14:48:00,73.0,62.0,30.12,ENE,65,5.0,10.0,68,-99.99,,,-99.99,,2013-01-19 19:48:00,
2013-01-19 14:59:00,73.0,62.0,30.12,ENE,65,5.0,10.0,68,-99.99,,,-99.99,,2013-01-19 19:59:00,
2013-01-19 15:12:00,74.0,63.0,30.11,ENE,59,5.0,10.0,67,-99.99,,,-99.99,,2013-01-19 20:12:00,
2013-01-19 15:15:00,73.0,63.0,30.10,NE,54,6.0,12.0,68,-99.99,,,-99.99,,2013-01-19 20:15:00,
2013-01-19 15:27:00,76.0,63.0,30.10,ENE,64,6.0,11.0,64,-99.99,,,-99.99,,2013-01-19 20:27:00,
2013-01-19 15:39:00,76.0,63.0,30.10,ENE,64,6.0,11.0,64,-99.99,,,-99.99,,2013-01-19 20:39:00,
2013-01-19 15:45:00,73.0,63.0,30.10,ENE,66,3.0,6.0,69,-99.99,,,-99.99,,2013-01-19 20:45:00,
2013-01-19 15:49:00,74.0,62.0,30.10,NE,42,6.0,13.0,65,-99.99,,,-99.99,,2013-01-19 20:49:00,
2013-01-19 15:59:00,74.0,62.0,30.10,NE,42,6.0,13.0,65,-99.99,,,-99.99,,2013-01-19 20:59:00,
2013-01-19 16:08:00,73.0,63.0,30.10,NE,54,6.0,12.0,68,-99.99,,,-99.99,,2013-01-19 21:08:00,
2013-01-19 16:15:00,74.0,62.0,30.10,ENE,66,4.0,9.0,66,-99.99,,,-99.99,,2013-01-19 21:15:00,
2013-01-19 16:29:00,73.0,63.0,30.10,ENE,66,3.0,6.0,69,-99.99,,,-99.99,,2013-01-19 21:29:00,
2013-01-19 16:52:00,74.0,63.0,30.10,ENE,66,4.0,8.0,67,-99.99,,,-99.99,,2013-01-19 21:52:00,
2013-01-19 17:15:00,71.0,63.0,30.10,ENE,58,5.0,10.0,73,-99.99,,,-99.99,,2013-01-19 22:15:00,
2013-01-19 17:28:00,73.0,63.0,30.10,ENE,57,5.0,10.0,70,-99.99,,,-99.99,,2013-01-19 22:28:00,
2013-01-19 17:35:00,73.0,63.0,30.10,ENE,57,5.0,10.0,70,-99.99,,,-99.99,,2013-01-19 22:35:00,
2013-01-19 17:48:00,72.0,63.0,30.10,ENE,58,6.0,11.0,72,-99.99,,,-99.99,,2013-01-19 22:48:00,
2013-01-19 17:59:00,72.0,63.0,30.10,ENE,58,6.0,11.0,72,-99.99,,,-99.99,,2013-01-19 22:59:00,
2013-01-19 18:00:00,71.0,62.0,30.11,NE,50,2.0,4.0,74,-99.99,,,-99.99,,2013-01-19 23:00:00,
2013-01-19 18:14:00,71.0,63.0,30.10,ENE,58,5.0,10.0,73,-99.99,,,-99.99,,2013-01-19 23:14:00,
2013-01-19 18:15:00,70.0,62.0,30.12,NE,41,2.0,3.0,76,-99.99,,,-99.99,,2013-01-19 23:15:00,
2013-01-19 18:28:00,71.0,62.0,30.11,NE,46,4.0,8.0,74,-99.99,,,-99.99,,2013-01-19 23:28:00,
2013-01-19 18:35:00,71.0,62.0,30.11,NE,46,4.0,8.0,74,-99.99,,,-99.99,,2013-01-19 23:35:00,
2013-01-19 18:48:00,71.0,62.0,30.11,NE,50,2.0,4.0,74,-99.99,,,-99.99,,2013-01-19 23:48:00,
2013-01-19 19:09:00,70.0,62.0,30.12,NE,41,2.0,3.0,76,-99.99,,,-99.99,,2013-01-20 00:09:00,
2013-01-19 19:15:00,69.0,62.0,30.13,NE,48,2.0,3.0,79,-99.99,,,-99.99,,2013-01-20 00:15:00,
2013-01-19 19:26:00,69.0,62.0,30.12,NE,53,2.0,5.0,80,-99.99,,,-99.99,,2013-01-20 00:26:00,
2013-01-19 19:47:00,69.0,62.0,30.13,NE,55,3.0,6.0,79,-99.99,,,-99.99,,2013-01-20 00:47:00,
2013-01-19 19:58:00,69.0,62.0,30.13,NE,55,3.0,6.0,79,-99.99,,,-99.99,,2013-01-20 00:58:00,
2013-01-19 20:00:00,68.0,62.0,30.14,ENE,57,4.0,7.0,80,-99.99,,,-99.99,,2013-01-20 01:00:00,
2013-01-19 20:04:00,69.0,62.0,30.13,NE,48,2.0,3.0,79,-99.99,,,-99.99,,2013-01-20 01:04:00,
2013-01-19 20:15:00,68.0,62.0,30.14,NE,45,3.0,5.0,81,-99.99,,,-99.99,,2013-01-20 01:15:00,
2013-01-19 20:28:00,68.0,62.0,30.14,NE,41,3.0,6.0,80,-99.99,,,-99.99,,2013-01-20 01:28:00,
2013-01-19 20:38:00,68.0,62.0,30.14,NE,41,3.0,6.0,80,-99.99,,,-99.99,,2013-01-20 01:38:00,
2013-01-19 20:49:00,68.0,62.0,30.14,ENE,57,4.0,7.0,80,-99.99,,,-99.99,,2013-01-20 01:49:00,
2013-01-19 21:09:00,68.0,62.0,30.14,NE,45,3.0,5.0,81,-99.99,,,-99.99,,2013-01-20 02:09:00,
2013-01-19 21:15:00,67.0,63.0,30.14,NE,45,3.0,5.0,85,-99.99,,,-99.99,,2013-01-20 02:15:00,
2013-01-19 21:27:00,68.0,63.0,30.15,NE,45,3.0,5.0,83,-99.99,,,-99.99,,2013-01-20 02:27:00,
2013-01-19 21:37:00,68.0,63.0,30.15,NE,45,3.0,5.0,83,-99.99,,,-99.99,,2013-01-20 02:37:00,
2013-01-19 21:45:00,67.0,63.0,30.14,ENE,61,2.0,5.0,84,-99.99,,,-99.99,,2013-01-20 02:45:00,
2013-01-19 21:59:00,67.0,63.0,30.14,ENE,61,2.0,5.0,84,-99.99,,,-99.99,,2013-01-20 02:59:00,
2013-01-19 22:09:00,67.0,63.0,30.14,NE,45,3.0,5.0,85,-99.99,,,-99.99,,2013-01-20 03:09:00,
2013-01-19 22:15:00,65.0,62.0,30.14,NE,47,3.0,5.0,90,-99.99,,,-99.99,,2013-01-20 03:15:00,
2013-01-19 22:26:00,67.0,63.0,30.14,NE,54,3.0,8.0,87,-99.99,,,-99.99,,2013-01-20 03:26:00,
2013-01-19 22:39:00,67.0,63.0,30.14,NE,54,3.0,8.0,87,-99.99,,,-99.99,,2013-01-20 03:39:00,
2013-01-19 22:58:00,66.0,63.0,30.14,NE,50,3.0,7.0,89,-99.99,,,-99.99,,2013-01-20 03:58:00,
2013-01-19 23:05:00,65.0,62.0,30.14,NE,47,3.0,5.0,90,-99.99,,,-99.99,,2013-01-20 04:05:00,
2013-01-19 23:28:00,63.0,61.0,30.14,NE,37,1.0,3.0,92,-99.99,,,-99.99,,2013-01-20 04:28:00,
2013-01-19 23:38:00,63.0,61.0,30.14,NE,37,1.0,3.0,92,-99.99,,,-99.99,,2013-01-20 04:38:00,
2013-01-19 23:45:00,63.0,61.0,30.14,ESE,105,1.0,3.0,93,-99.99,,,-99.99,,2013-01-20 04:45:00,
2013-01-19 23:59:00,63.0,61.0,30.14,ESE,105,1.0,3.0,93,-99.99,,,-99.99,,2013-01-20 04:59:00,